Regional Weather Roundup
Issued by NWS

Home | Current Version | Previous Version | Graphics & Text | Print | Product List | Glossary On
Versions: 1 2 3 4 5 6 7 8 9 10 11 12 13 14 15 16 17 18 19 20 21 22 23 24 25 26 27 28 29 30 31 32 33 34 35 36 37 38 39 40 41 42 43 44 45 46 47 48 49 50
000
ASUS44 KMEG 261000
RWRTN
TENNESSEE HOURLY STATE WEATHER ROUNDUP
NATIONAL WEATHER SERVICE MEMPHIS TN
500 AM CDT MON SEP 26 2016

TNZ002-004-019-021-049-052-054-088>092-261100-
WEST TENNESSEE

CITY           SKY/WX    TMP DP  RH WIND       PRES   REMARKS
MEMPHIS INTL   CLOUDY    76  71  85 N16G23    30.02R
NWS MEMPHIS      N/A     76 N/A N/A MISG        N/A
JACKSON          N/A    N/A N/A N/A MISG      30.01R
DYERSBURG      CLOUDY   N/A N/A N/A MISG        N/A
UNION CITY     CLOUDY    68  66  94 N15       30.04R
PARIS          PTCLDY    72  66  83 N10       30.03R
LEXINGTON      CLEAR     64  64 100 CALM      29.98S
$$

TNZ008-025-027-028-033-062-065-066-261100-
NORTH MIDDLE TENNESSEE

CITY           SKY/WX    TMP DP  RH WIND       PRES   REMARKS
NASHVILLE      CLEAR     69  64  84 CALM      29.99R
CLARKSVILLE    CLOUDY    68  66  93 CALM      29.98R
SMYRNA         CLEAR     66  64  93 CALM      29.99S
COOKEVILLE     PTCLDY    64  64 100 CALM      30.01S
CROSSVILLE     CLEAR     70  60  70 S5        30.07F
$$

TNZ061-075-076-078-094-096-097-261100-
SOUTH MIDDLE TENNESSEE

CITY           SKY/WX    TMP DP  RH WIND       PRES   REMARKS
SHELBYVILLE    CLEAR     68  66  94 E3        30.00F
$$

TNZ017-018-042-046-047-261100-
NORTHEAST TENNESSEE

CITY           SKY/WX    TMP DP  RH WIND       PRES   REMARKS
TRI CITIES     PTCLDY    62  61  96 CALM      30.07S FOG
$$

TNZ012-013-036-069-073-074-261100-
CENTRAL EAST TENNESSEE

CITY           SKY/WX    TMP DP  RH WIND       PRES   REMARKS
KNOXVILLE      NOT AVBL
OAK RIDGE      CLEAR     70  65  84 CALM      30.05S
GATLINBURG     CLEAR     63  61  94 CALM      30.03S
$$

TNZ083-085-099-261100-
SOUTHEAST TENNESSEE

CITY           SKY/WX    TMP DP  RH WIND       PRES   REMARKS
CHATTANOOGA    PTCLDY    72  63  73 CALM      30.04S
$$

SKY/WX REPORTED AS FAIR MEANS FEW OR NO CLOUDS BELOW
12 THOUSAND FEET.




USA.gov is the U.S. government's official web portal to all federal, state and local government web resources and services.